This is the latest recevied weather packets stored in our database for station/object KC0UFP. If no packets are shown the sender has not sent any weather packets the latest 10 day(s).
| Time | Temp. | Humidity | Pressure | Rain* | Wind** | Luminosity | Snow |
|---|---|---|---|---|---|---|---|
| 1777241364 | 28.89° C | 44% | 1009.3 hPa | 0 mm | - | 423 W/m² | - |
| 1777241062 | 28.89° C | 44% | 1009.5 hPa | 0 mm | - | 226 W/m² | - |
| 1777240760 | 28.89° C | 44% | 1009.1 hPa | 0 mm | - | 480 W/m² | - |
| 1777240457 | 28.89° C | 43% | 1009.4 hPa | 0 mm | - | 509 W/m² | - |
| 1777240154 | 28.89° C | 44% | 1009.5 hPa | 0 mm | - | 499 W/m² | - |
| 1777239853 | 28.33° C | 43% | 1009.4 hPa | 0 mm | - | 590 W/m² | - |
| 1777239549 | 28.33° C | 46% | 1009.3 hPa | 0 mm | - | 244 W/m² | - |
| 1777239245 | 28.33° C | 46% | 1009.4 hPa | 0 mm | - | 342 W/m² | - |
| 1777238943 | 28.33° C | 46% | 1009.6 hPa | 0 mm | - | 240 W/m² | - |
| 1777238640 | 28.89° C | 44% | 1009.6 hPa | 0 mm | - | 235 W/m² | - |
| 1777238336 | 28.33° C | 46% | 1009.6 hPa | 0 mm | - | 418 W/m² | - |
| 1777238033 | 28.89° C | 43% | 1009.6 hPa | 0 mm | - | 754 W/m² | - |
| 1777237729 | 28.89° C | 46% | 1009.6 hPa | 0 mm | - | 765 W/m² | - |
| 1777237421 | 27.78° C | 47% | 1009.7 hPa | 0 mm | - | 282 W/m² | - |
| 1777237118 | 27.78° C | 47% | 1009.8 hPa | 0 mm | - | 819 W/m² | - |
| 1777236816 | 27.78° C | 44% | 1009.8 hPa | 0 mm | - | 213 W/m² | - |
| 1777236516 | 27.78° C | 45% | 1009.8 hPa | 0 mm | - | 226 W/m² | - |
| 1777236212 | 28.33° C | 46% | 1010 hPa | 0 mm | - | 792 W/m² | - |
| 1777235907 | 28.33° C | 43% | 1010 hPa | 0 mm | - | 775 W/m² | - |
| 1777235605 | 28.89° C | 43% | 1009.9 hPa | 0 mm | - | 805 W/m² | - |
| 1777235301 | 28.89° C | 44% | 1009.9 hPa | 0 mm | - | 824 W/m² | - |
| 1777234998 | 28.33° C | 45% | 1010.2 hPa | 0 mm | - | 889 W/m² | - |
| 1777234695 | 28.33° C | 47% | 1010.4 hPa | 0 mm | - | 957 W/m² | - |
| 1777234390 | 28.33° C | 46% | 1010.4 hPa | 0 mm | - | 484 W/m² | - |
| 1777234085 | 28.33° C | 45% | 1010.5 hPa | 0 mm | - | 985 W/m² | - |
* Rain latest hour (hover to see other rain measurements)
** Current wind speed in m/s (hover to see current wind gust speed)